Regional Weather Roundup
Issued by NWS Cleveland, OH

Home | Current Version | Previous Version | Graphics & Text | Print | Product List | Glossary On
Versions: 1 2 3 4 5 6 7 8 9 10 11 12 13 14 15 16 17 18 19 20 21 22 23 24 25 26 27 28 29 30 31 32 33 34 35 36 37 38 39 40 41 42 43 44 45 46 47 48 49 50
470
ASUS41 KCLE 300502
RWRCLE
OHIO REGIONAL WEATHER ROUNDUP
NATIONAL WEATHER SERVICE CLEVELAND, OH
100 AM EDT MON MAY 30 2016

NOTE: "FAIR" INDICATES FEW OR NO CLOUDS BELOW 12,000 FEET WITH NO
SIGNIFICANT WEATHER AND/OR OBSTRUCTIONS TO VISIBILITY.

OHZ001>008-015>018-024>027-034-035-043-044-300600-
   NORTHWEST OHIO

CITY           SKY/WX    TMP DP  RH WIND       PRES   REMARKS
DEFIANCE       CLOUDY    64  56  75 SW3       30.01S
FINDLAY        CLEAR     72  54  53 N3        30.01R
TOLEDO EXPRESS CLEAR     65  56  72 CALM      30.00S
TOLEDO EXEC    PTCLDY    70  56  61 NW6       30.00S
LIMA           PTCLDY    70  58  65 N5        30.02R
$$

OHZ009>014-019>023-028>033-038-089-300600-
   NORTHEAST OHIO

CITY           SKY/WX    TMP DP  RH WIND       PRES   REMARKS
CLE-HOPKINS    CLOUDY    66  62  87 S5        30.00F
CLE-LAKEFRONT  MOCLDY    67  61  81 S14       29.96F
CUY CO. ARPT   NOT AVBL
LORAIN-ELYRIA  CLOUDY    66  59  78 S8        29.99F
ASHTABULA      CLOUDY    65  59  81 SW12      30.00S
AKRON-CANTON   CLOUDY    66  61  84 S7        30.02F
WOOSTER        MOCLDY    64  61  90 S3        30.03S
MANSFIELD      CLOUDY    64  60  87 S7        30.02F
YOUNGSTOWN     CLOUDY    66  59  78 S7        30.02F
$$

OHZ042-051>053-060>062-070>072-077>081-300600-
  SOUTHWEST OHIO

CITY           SKY/WX    TMP DP  RH WIND       PRES   REMARKS
CINC-COVINGTON PTCLDY    67  65  93 SE3       30.03R
CINC-LUNKEN    MOCLDY    65  65 100 CALM      30.04R FOG
HAMILTON       PTCLDY    67  63  87 CALM      30.03R
DAYTON         PTCLDY    67  64  90 SE7       30.04R
WRIGHT-PAT AFB MOCLDY    68  66  93 CALM      30.02S
DAYTON GENERAL PTCLDY    66  61  84 NE3       30.02S
WILMINGTON     MOCLDY    66  64  93 S3        30.03S
$$

OHZ036-037-039>041-045>050-054>059-063>069-073>076-082>088-300600-
  CENTRAL AND SOUTHEAST OHIO

CITY           SKY/WX    TMP DP  RH WIND       PRES   REMARKS
COLUMBUS       CLOUDY    66  64  93 S5        30.02F
OSU AIRPORT    CLOUDY    68  63  84 S9        30.02S
BOLTON FIELD   NOT AVBL
RICKENBACK AFB NOT AVBL
NEWARK         CLOUDY    68  61  78 W5        30.01F
MARION         CLOUDY    65  61  87 SW7       30.02S
LANCASTER      CLOUDY    66  63  90 SW6       30.02F
ZANESVILLE     CLOUDY    68  63  84 E5        30.03F
NEW PHILLY     CLOUDY    66  61  84 SE6       30.03F
$$




USA.gov is the U.S. government's official web portal to all federal, state and local government web resources and services.